Regional Weather Roundup
Issued by NWS

Home | Current Version | Previous Version | Text Only | Print | Product List | Glossary On
Versions: 1 2 3 4 5 6 7 8 9 10 11 12 13 14 15 16 17 18 19 20 21 22 23 24 25 26 27 28 29 30 31 32 33 34 35 36 37 38 39 40 41 42 43 44 45 46 47 48 49 50
000
ASUS43 KLOT 270110
RWRIL

ILLINOIS REGIONAL WEATHER ROUNDUP
NATIONAL WEATHER SERVICE CHICAGO/ROMEOVILLE IL
700 PM CST MON JAN 26 2015

NOTE: "FAIR" INDICATES FEW OR NO CLOUDS BELOW 12,000 FEET WITH NO
SIGNIFICANT WEATHER AND/OR OBSTRUCTIONS TO VISIBILITY.

* THESE STATIONS ARE NOT UNDER NWS QUALITY CONTROL. THEY ALSO MAY NOT
  REPORT WEATHER SUCH AS PRECIPITATION OR FOG.

ILZ001-002-007-009-015-016-024-270200-
NORTHWEST ILLINOIS

CITY           SKY/WX    TMP DP  RH WIND       PRES   REMARKS
MOLINE         CLOUDY    32  30  92 CALM      29.86R
STERLING*      CLOUDY    27  25  93 S3        29.87R
SAVANNA*       CLOUDY    28  27  95 CALM      29.87R FOG
$$

ILZ003-004-008-010-011-017-018-270200-
NORTH CENTRAL ILLINOIS

CITY           SKY/WX    TMP DP  RH WIND       PRES   REMARKS
ROCKFORD       FRZ DRZL  25  23  92 S6        29.90R FOG     WCI  18
FREEPORT*      CLOUDY    24  23  94 CALM      29.89R FOG
ROCHELLE*      CLOUDY    26  25  96 S7        29.88S FOG     WCI  18
DE KALB*       MIX PCPN  24  23  96 S8        29.87F WCI  15
PERU*          CLOUDY    29  28  96 S6        29.88S FOG     WCI  23
$$

ILZ005-006-012>014-019>023-270200-
NORTHEAST ILLINOIS

CITY           SKY/WX    TMP DP  RH WIND       PRES   REMARKS
CHICAGO-OHARE  FRZ DRZL  25  23  92 S8        29.89S FOG     WCI  16
CHICAGO-MIDWAY LGT SNOW  27  24  89 SE6       29.91S FOG     WCI  20
AURORA         CLOUDY    27  23  85 SE8       29.89S FOG     WCI  19
LANSING*       CLOUDY    26  23  88 S5        29.92S WCI  21
JOLIET*        MIX PCPN  26  24  95 SE6       29.91S WCI  19
WAUKEGAN       LGT SNOW  25  23  92 SE6       29.89S FOG     WCI  18
DUPAGE AIRPORT FRZ RAIN  25  23  92 S8        29.88S FOG     WCI  16
KANKAKEE*      CLOUDY    27  25  95 SE3       29.92R FOG
WHEELING       CLOUDY    26  23  88 S7        29.92R FOG     WCI  18
MORRIS*        MIX PCPN  28  28  99 S7        29.89F WCI  21
ROMEOVILLE*    CLOUDY    26  25  99 SE8       29.91S FOG     WCI  17
NORTHERLY ISL    N/A     26  23  88 S8          N/A  WCI  18
$$

LMZ740>746-270200-
SOUTHERN LAKE MICHIGAN

STATION/POSITION SKY/WX   TEMP    WIND        PRES    VSBY  WAVE
                          AIR SEA DIR/SP/G                  HT/PER
                          (F)     (DEG/KT/KT) (MB)    (MI)  (FT/S)
WAUKEGAN HARBOR            26     190/  3/  5   N/A
HARRISON CRIB              26     190/  9/ 10   N/A
BURNHAM HARBOR             26     190/  6/  8   N/A
CALUMET HARBOR             26     180/  4/  6   N/A
MICHIGAN CITY              24     140/  5/  7   N/A
$$

ILZ025>027-034>036-040-047-049-050-058-095>099-270200-
WEST-CENTRAL ILLINOIS

CITY           SKY/WX    TMP DP  RH WIND       PRES   REMARKS
QUINCY         CLOUDY    36  33  89 S5        29.88R WCI  32
GALESBURG*     CLOUDY    33  32  96 SW3       29.86R
MACOMB*        CLOUDY    32  31  97 CALM      29.90R FOG
JACKSONVILLE*  CLOUDY    36  31  84 SW3       29.88S
PITTSFIELD*    CLOUDY    35  31  87 S9        29.88F WCI  28
$$

ILZ028>032-037-038-041>044-048-051>054-059>061-270200-
CENTRAL ILLINOIS

CITY           SKY/WX    TMP DP  RH WIND       PRES   REMARKS
PONTIAC        MIX PCPN  30  29  97 S8        29.91R WCI  22
BLOOMINGTON    CLOUDY    29  29 100 S12       29.88S FOG     WCI  19
DECATUR        CLOUDY    30  29  96 S7        29.90S FOG     WCI  23
PEORIA         CLOUDY    31  29  92 S6        29.89R FOG     WCI  25
LACON*         MIX PCPN  29  27  94 S3        29.88S
LINCOLN*       CLOUDY    32  31  94 S5        29.90S FOG     WCI  27
SPRINGFIELD    CLOUDY    33  28  81 SW7       29.89S WCI  27
TAYLORVILLE    CLOUDY    32  28  86 S6        29.90S WCI  26
$$

ILZ033-039-045-046-055>057-062-063-270200-
EAST-CENTRAL ILLINOIS

CITY           SKY/WX    TMP DP  RH WIND       PRES   REMARKS
CHAMPAIGN      FRZ RAIN  28  26  92 S9        29.90S FOG     WCI  19
DANVILLE*      LGT RAIN  26  25  95 SW6       29.90S WCI  20
RANTOUL*       CLOUDY    29  28  95 S9        29.90F FOG     WCI  21
MATTOON        CLOUDY    27  25  92 S6        29.91F FOG     WCI  20
PARIS*         CLOUDY    28  27  96 NE3       29.94S FOG
$$

ILZ079-100>102-270200-
SOUTHWEST ILLINOIS

CITY           SKY/WX    TMP DP  RH WIND       PRES   REMARKS
ALTON          CLOUDY    34  30  86 SE6       29.92S WCI  29
BELLEVILLE     CLOUDY    33  31  93 S2        29.92S
CAHOKIA*       CLEAR     34  29  82 SE5       29.92R WCI  30
SPARTA*        CLEAR     32  28  86 SE6       29.93S WCI  26
$$

ILZ064>066-069>071-074>076-080>082-084>086-088>090-092>094-270200-
SOUTH-CENTRAL ILLINOIS

CITY           SKY/WX    TMP DP  RH WIND       PRES   REMARKS
CARBONDALE     CLOUDY    35  28  75 SE7       29.95F WCI  29
CAIRO*         CLEAR     35  31  87 E5        29.97S WCI  31
EFFINGHAM*     CLOUDY    30  27  86 SE5       29.95S FOG     WCI  25
MARION         CLOUDY    36  28  75 S6        29.95F WCI  31
MT. VERNON     CLOUDY    34  27  75 S5        29.94F WCI  30
CENTRALIA*     CLOUDY    33  28  85 S8        29.92F WCI  25
SALEM*         CLOUDY    33  29  85 CALM      29.93S
METROPOLIS*    CLOUDY    37  32  82 CALM      29.97S
$$

ILZ067-068-072-073-078-083-087-091-270200-
SOUTHEAST ILLINOIS

CITY           SKY/WX    TMP DP  RH WIND       PRES   REMARKS
LAWRENCEVILLE  CLOUDY    28  25  88 S5        29.97S WCI  23
FLORA*         CLOUDY    30  28  93 S6        29.95S WCI  24
FAIRFIELD*     CLOUDY    31  28  90 SE3       29.94F
HARRISBURG*    CLOUDY    33  31  91 S3        29.97F
ROBINSON*      CLOUDY    28  26  90 S5        29.97S WCI  23
CARMI*         CLOUDY    32  30  93 SE5       29.96F WCI  27
$$

ABBREVIATIONS USED IN REMARKS
   TC - TEMPERATURE IN CELSIUS
  WCI - WIND CHILL INDEX
   HX - HEAT INDEX
  VSB - VISIBILITY
$$




USA.gov is the U.S. government's official web portal to all federal, state and local government web resources and services.